When you browse on this site, cookies collect data to enhance your experience and personalize the content and advertising you see.
Visit our Privacy Policy to learn more. By continuing to use the site, you agree to this use of cookies and data.
  • In Austria
  • List of Countries
  • For 7 days
  • Water Temperature
  • Satellite Maps
  • Weather Map
  • News
  • Weather Widgets
  • user-avatar
    Login

    Hourly Weather Yulara

    Today, 20 July, Saturday

    Time Temperature Precipitation Wind Pressure Humidity
    00:00 +10°C° 0 mm 2 mps 718 mmHg 35%
    01:00 +10°C° 0 mm 2 mps 718 mmHg 35%
    02:00 +10°C° 0 mm 2 mps 717 mmHg 35%
    03:00 +10°C° 0 mm 2 mps 717 mmHg 34%
    04:00 +9°C° 0 mm 2 mps 717 mmHg 35%
    05:00 +9°C° 0 mm 2 mps 717 mmHg 35%
    06:00 +8°C° 0 mm 2 mps 717 mmHg 36%
    07:00 +11°C° 0 mm 3 mps 717 mmHg 31%
    08:00 +14°C° 0 mm 3 mps 717 mmHg 26%
    09:00 +17°C° 0 mm 4 mps 718 mmHg 21%
    10:00 +20°C° 0 mm 5 mps 718 mmHg 19%
    11:00 +23°C° 0 mm 6 mps 718 mmHg 16%
    12:00 +27°C° 0 mm 7 mps 717 mmHg 14%
    13:00 +28°C° 0 mm 8 mps 717 mmHg 14%
    14:00 +29°C° 0 mm 9 mps 716 mmHg 14%
    15:00 +29°C° 0 mm 10 mps 716 mmHg 14%
    16:00 +27°C° 0 mm 8 mps 715 mmHg 16%
    17:00 +24°C° 0 mm 6 mps 715 mmHg 19%
    18:00 +22°C° 0 mm 4 mps 715 mmHg 22%
    19:00 +21°C° 0 mm 5 mps 716 mmHg 22%
    20:00 +21°C° 0 mm 5 mps 717 mmHg 23%
    21:00 +21°C° 0 mm 6 mps 717 mmHg 23%
    22:00 +19°C° 0 mm 6 mps 717 mmHg 31%
    23:00 +16°C° 0 mm 6 mps 717 mmHg 39%

    Tomorrow, 21 July, Sunday

    Time Temperature Precipitation Wind Pressure Humidity
    00:00 +15°C° 0 mm 6 mps 717 mmHg 47%
    01:00 +13°C° 0 mm 6 mps 718 mmHg 53%
    02:00 +12°C° 0 mm 5 mps 718 mmHg 60%
    03:00 +10°C° 0 mm 5 mps 718 mmHg 66%
    04:00 +10°C° 0 mm 4 mps 718 mmHg 68%
    05:00 +8°C° 0 mm 4 mps 718 mmHg 69%
    06:00 +8°C° 0 mm 3 mps 718 mmHg 71%
    07:00 +8°C° 0 mm 4 mps 719 mmHg 63%
    08:00 +11°C° 0 mm 4 mps 720 mmHg 55%
    09:00 +13°C° 0 mm 5 mps 720 mmHg 47%
    10:00 +14°C° 0 mm 4 mps 720 mmHg 41%
    11:00 +17°C° 0 mm 3 mps 719 mmHg 36%
    12:00 +18°C° 0 mm 3 mps 719 mmHg 30%
    13:00 +19°C° 0 mm 2 mps 718 mmHg 28%
    14:00 +20°C° 0 mm 2 mps 718 mmHg 25%
    15:00 +22°C° 0 mm 1 mps 717 mmHg 22%
    16:00 +19°C° 0 mm 2 mps 717 mmHg 27%
    17:00 +16°C° 0 mm 2 mps 717 mmHg 32%
    18:00 +14°C° 0 mm 2 mps 717 mmHg 36%
    19:00 +14°C° 0 mm 2 mps 717 mmHg 36%
    20:00 +12°C° 0 mm 3 mps 718 mmHg 35%
    21:00 +12°C° 0 mm 3 mps 718 mmHg 34%
    22:00 +12°C° 0 mm 3 mps 718 mmHg 34%
    23:00 +11°C° 0 mm 3 mps 718 mmHg 35%

    Day after tomorrow, 22 July, Monday

    Time Temperature Precipitation Wind Pressure Humidity
    00:00 +11°C° 0 mm 3 mps 718 mmHg 35%
    01:00 +10°C° 0 mm 3 mps 717 mmHg 36%
    02:00 +10°C° 0 mm 3 mps 717 mmHg 38%
    03:00 +9°C° 0 mm 3 mps 717 mmHg 40%
    04:00 +8°C° 0 mm 3 mps 717 mmHg 42%
    05:00 +8°C° 0 mm 3 mps 718 mmHg 44%
    06:00 +7°C° 0 mm 3 mps 718 mmHg 46%
    07:00 +9°C° 0 mm 3 mps 718 mmHg 42%
    08:00 +11°C° 0 mm 3 mps 719 mmHg 38%
    09:00 +13°C° 0 mm 3 mps 719 mmHg 33%
    10:00 +16°C° 0 mm 3 mps 719 mmHg 31%
    11:00 +19°C° 0 mm 3 mps 719 mmHg 29%
    12:00 +21°C° 0 mm 3 mps 719 mmHg 27%
    13:00 +23°C° 0 mm 2 mps 718 mmHg 26%
    14:00 +24°C° 0 mm 2 mps 717 mmHg 25%
    15:00 +24°C° 0 mm 1 mps 717 mmHg 24%
    16:00 +22°C° 0 mm 1 mps 717 mmHg 29%
    17:00 +19°C° 0 mm 2 mps 717 mmHg 33%
    18:00 +17°C° 0 mm 2 mps 717 mmHg 38%
    19:00 +16°C° 0 mm 3 mps 717 mmHg 38%
    20:00 +16°C° 0 mm 3 mps 718 mmHg 38%
    21:00 +15°C° 0 mm 4 mps 718 mmHg 39%
    22:00 +14°C° 0 mm 4 mps 719 mmHg 37%
    23:00 +13°C° 0 mm 4 mps 719 mmHg 36%

    23 July, Tuesday

    Time Temperature Precipitation Wind Pressure Humidity
    00:00 +12°C° 0 mm 5 mps 719 mmHg 35%
    01:00 +12°C° 0 mm 5 mps 719 mmHg 35%
    02:00 +10°C° 0 mm 5 mps 719 mmHg 36%
    03:00 +9°C° 0 mm 5 mps 719 mmHg 36%
    04:00 +10°C° 0 mm 4 mps 719 mmHg 37%
    05:00 +8°C° 0 mm 4 mps 720 mmHg 38%
    06:00 +8°C° 0 mm 4 mps 720 mmHg 39%
    07:00 +10°C° 0 mm 5 mps 721 mmHg 36%
    08:00 +11°C° 0 mm 6 mps 721 mmHg 33%
    09:00 +14°C° 0 mm 6 mps 722 mmHg 30%
    10:00 +17°C° 0 mm 6 mps 721 mmHg 28%
    11:00 +20°C° 0 mm 6 mps 721 mmHg 25%
    12:00 +22°C° 0 mm 7 mps 721 mmHg 23%
    13:00 +23°C° 0 mm 6 mps 721 mmHg 22%
    14:00 +25°C° 0 mm 5 mps 720 mmHg 21%
    15:00 +26°C° 0 mm 4 mps 720 mmHg 21%
    16:00 +23°C° 0 mm 4 mps 720 mmHg 23%
    17:00 +21°C° 0 mm 4 mps 720 mmHg 26%
    18:00 +20°C° 0 mm 5 mps 720 mmHg 29%
    19:00 +19°C° 0 mm 5 mps 721 mmHg 31%
    20:00 +16°C° 0 mm 5 mps 721 mmHg 33%
    21:00 +15°C° 0 mm 5 mps 722 mmHg 36%
    22:00 +14°C° 0 mm 6 mps 722 mmHg 38%
    23:00 +13°C° 0 mm 6 mps 723 mmHg 41%

    24 July, Wednesday

    Time Temperature Precipitation Wind Pressure Humidity
    00:00 +13°C° 0 mm 6 mps 723 mmHg 43%
    01:00 +11°C° 0 mm 6 mps 723 mmHg 47%
    02:00 +10°C° 0 mm 6 mps 723 mmHg 51%
    03:00 +10°C° 0 mm 6 mps 723 mmHg 55%
    04:00 +9°C° 0 mm 5 mps 723 mmHg 58%
    05:00 +8°C° 0 mm 5 mps 723 mmHg 61%
    06:00 +8°C° 0 mm 5 mps 724 mmHg 63%
    07:00 +9°C° 0 mm 6 mps 724 mmHg 58%
    08:00 +11°C° 0 mm 7 mps 724 mmHg 52%
    09:00 +12°C° 0 mm 8 mps 725 mmHg 47%
    10:00 +15°C° 0 mm 8 mps 725 mmHg 40%
    11:00 +18°C° 0 mm 7 mps 724 mmHg 34%
    12:00 +21°C° 0 mm 7 mps 724 mmHg 28%
    13:00 +22°C° 0 mm 7 mps 724 mmHg 26%
    14:00 +22°C° 0 mm 6 mps 723 mmHg 25%
    15:00 +23°C° 0 mm 5 mps 722 mmHg 24%
    16:00 +21°C° 0 mm 5 mps 723 mmHg 28%
    17:00 +19°C° 0 mm 4 mps 723 mmHg 32%
    18:00 +17°C° 0 mm 4 mps 723 mmHg 35%
    19:00 +17°C° 0 mm 4 mps 723 mmHg 38%
    20:00 +15°C° 0 mm 4 mps 724 mmHg 41%
    21:00 +14°C° 0 mm 4 mps 724 mmHg 43%
    22:00 +13°C° 0 mm 4 mps 724 mmHg 46%
    23:00 +12°C° 0 mm 4 mps 724 mmHg 49%

    25 July, Thursday

    Time Temperature Precipitation Wind Pressure Humidity
    00:00 +11°C° 0 mm 4 mps 724 mmHg 51%
    01:00 +11°C° 0 mm 4 mps 724 mmHg 52%
    02:00 +11°C° 0 mm 4 mps 723 mmHg 53%
    03:00 +10°C° 0 mm 3 mps 723 mmHg 53%
    04:00 +10°C° 0 mm 3 mps 723 mmHg 53%
    05:00 +10°C° 0 mm 3 mps 724 mmHg 54%
    06:00 +10°C° 0 mm 3 mps 724 mmHg 54%
    07:00 +11°C° 0 mm 3 mps 724 mmHg 50%
    08:00 +12°C° 0 mm 3 mps 724 mmHg 46%
    09:00 +13°C° 0 mm 4 mps 725 mmHg 42%
    10:00 +15°C° 0 mm 4 mps 725 mmHg 37%
    11:00 +19°C° 0 mm 4 mps 724 mmHg 32%
    12:00 +21°C° 0 mm 4 mps 724 mmHg 27%
    13:00 +22°C° 0 mm 4 mps 723 mmHg 26%
    14:00 +24°C° 0 mm 3 mps 723 mmHg 24%
    15:00 +25°C° 0 mm 3 mps 722 mmHg 22%
    16:00 +21°C° 0 mm 3 mps 722 mmHg 26%
    17:00 +19°C° 0 mm 3 mps 722 mmHg 29%
    18:00 +17°C° 0 mm 3 mps 722 mmHg 33%
    19:00 +16°C° 0 mm 3 mps 722 mmHg 34%
    20:00 +14°C° 0 mm 3 mps 722 mmHg 36%
    21:00 +13°C° 0 mm 3 mps 722 mmHg 38%
    22:00 +12°C° 0 mm 3 mps 722 mmHg 40%
    23:00 +11°C° 0 mm 3 mps 722 mmHg 42%
    Show more